Flag for Taiwan Weather past 2 weeks in Taipei, Taiwan

Now
81 °F

Clear.


Feels Like: 84 °F
Forecast: 78 / 93 °F
Wind: 2 mph from Northwest

Location: Sungshan / Taipei

Current Time: Aug 24, 2014 at 2:04:15 AM

Latest Report: Aug 24, 2014 at 1:00 AM


Visibility: 10 mi

Pressure: 29.83 "Hg

Humidity: 70%

Dew point: 70 °F

Location of TaipeiLocation

Historic Weather in Taipei — Graph

°F

Taipei temperature yesterday

Maximum temperature yesterday: 91 °F (at 11:30 AM)
Minimum temperature yesterday: 81 °F (at 6:00 AM)
Average temperature yesterday: 86 °F

Past Weeks' High & Low Weather Summary

 TemperatureHumidityPressure
High95 °F (Aug 14, 2:30 PM)100% (Aug 19, 4:57 PM)29.89 "Hg (Aug 19, 4:57 PM)
Low75 °F (Aug 19, 4:30 PM)41% (Aug 14, 2:30 PM)29.53 "Hg (Aug 12, 2:30 PM)
Average85 °F69%29.74 "Hg
* Reported Aug 9 1:00 AM — Aug 24 1:00 AM, Taipei, Weather by CustomWeather, © 2014

Note: Actual official high and low records may vary slightly from our data, if they occured in-between our weather recording intervals... More about our weather records

Advertising

Taipei weather history for previous 24 hours

 ConditionsComfort  
Time TempWeatherWind HumidityBarometerVisibility
1:00 AM
Aug 24
81 °FClear.2 mph70%29.83 "Hg10 mi
12:00 AM82 °FClear.1 mph62%29.83 "Hg10 mi
11:30 PM
Aug 23
81 °FClear.2 mph70%29.83 "Hg10 mi
11:00 PM82 °FClear.1 mph62%29.83 "Hg10 mi
10:30 PM82 °FClear.2 mph58%29.83 "Hg10 mi
10:00 PM82 °FClear.1 mph62%29.83 "Hg10 mi
9:30 PM84 °FPassing clouds.3 mph58%29.83 "HgN/A
9:00 PM82 °FPassing clouds.6 mph66%29.80 "HgN/A
8:30 PM84 °FPassing clouds.2 mph58%29.80 "HgN/A
7:30 PM86 °FPassing clouds.3 mph49%29.80 "HgN/A
7:00 PM86 °FPassing clouds.5 mph49%29.80 "HgN/A
6:30 PM86 °FPartly cloudy.6 mph49%29.80 "HgN/A
6:00 PM88 °FPartly sunny.9 mph46%29.80 "HgN/A
5:30 PM86 °FBroken clouds.10 mph55%29.77 "HgN/A
5:00 PM88 °FPartly sunny.9 mph55%29.77 "HgN/A
4:30 PM88 °FBroken clouds.9 mph59%29.77 "HgN/A
4:00 PM90 °FBroken clouds.10 mph55%29.77 "HgN/A
3:45 PM90 °FBroken clouds.7 mph55%29.77 "HgN/A
3:30 PM91 °FBroken clouds.5 mph56%29.77 "HgN/A
3:00 PM90 °FPartly sunny.5 mph63%29.77 "HgN/A
2:30 PM88 °FPartly sunny.9 mph62%29.77 "HgN/A
1:30 PM88 °FPartly sunny.9 mph62%29.80 "HgN/A
1:00 PM88 °FBroken clouds.10 mph62%29.80 "HgN/A
12:30 PM88 °FBroken clouds.10 mph59%29.83 "HgN/A
12:00 PM91 °FBroken clouds.5 mph46%29.83 "HgN/A
11:30 AM91 °FBroken clouds.3 mph49%29.83 "HgN/A
10:30 AM90 °FScattered clouds.6 mph55%29.86 "HgN/A
10:00 AM88 °FScattered clouds.6 mph59%29.86 "HgN/A
9:30 AM88 °FScattered clouds.3 mph55%29.86 "HgN/A
8:30 AM86 °FScattered clouds.6 mph62%29.86 "HgN/A
7:30 AM82 °FScattered clouds.5 mph74%29.86 "HgN/A
7:00 AM82 °FScattered clouds.7 mph70%29.86 "HgN/A
6:30 AM81 °FScattered clouds.3 mph74%29.86 "HgN/A
6:00 AM81 °FPartly sunny.5 mph74%29.83 "HgN/A
5:00 AM82 °FPassing clouds.2 mph74%29.83 "HgN/A
4:00 AM82 °FPassing clouds.3 mph79%29.83 "HgN/A
3:00 AM82 °FPassing clouds.2 mph74%29.83 "HgN/A
2:00 AM82 °FPassing clouds.2 mph74%29.83 "HgN/A
Weather by CustomWeather, © 2014

See weather overviewHow to use our weather pages